Regional Weather Roundup
Issued by NWS State College, PA

Current Version | Previous Version | Text Only | Print | Product List | Glossary On
Versions: 1 2 3 4 5 6 7 8 9 10 11 12 13 14 15 16 17 18 19 20 21 22 23 24 25 26 27 28 29 30 31 32 33 34 35 36 37 38 39 40 41 42 43 44 45 46 47 48 49 50
000
ASUS41 KCTP 271510
RWRCTP

REGIONAL WEATHER ROUNDUP
NATIONAL WEATHER SERVICE STATE COLLEGE PA
1100 AM EDT WED AUG 27 2014

Note: "fair" indicates few or no clouds below 12,000 feet with no
significant weather and/or obstructions to visibility.

* = STATION THAT DOES NOT REPORT PRECIPITATION /E.G. RAIN...SNOW...ETC/
    THUNDER OR FOG.

PAZ002>004-007>009-013>016-020>023-029>032-271600-
WESTERN PENNSYLVANIA

CITY           SKY/WX    TMP DP  RH WIND       PRES   REMARKS
ERIE           CLOUDY    72  64  78 N6        30.09S
MEADVILLE      PTSUNNY   73  67  81 CALM      30.11S
FRANKLIN*      CLOUDY    72  66  83 N3        30.12S
NEW CASTLE     FAIR      81  70  69 CALM      30.10S
BEAVER COUNTY  MOSUNNY   79  70  73 CALM      30.10S
BUTLER*        MOSUNNY   79  70  73 CALM      30.11F
PITTSBURGH INT PTSUNNY   78  69  73 CALM      30.09F
PITTSBURGH     SUNNY     77  65  66 S3        30.10F
INDIANA*       SUNNY     75  66  73 SW6       30.14F
LATROBE        SUNNY     75  66  73 SW10      30.12F
WASHINGTON CO* MOSUNNY   79  70  73 CALM      30.11F
$$

PAZ004>006-010>012-017>019-024>028-033>037-041-042-045-046-049>053-271600-
CENTRAL PENNSYLVANIA

CITY           SKY/WX    TMP DP  RH WIND       PRES   REMARKS
BRADFORD       CLOUDY    74  65  73 W7        30.12S
DUBOIS         SUNNY     76  67  73 SW5       30.10S
CLEARFIELD     SUNNY     76  67  73 S6        30.10F
JOHNSTOWN      SUNNY     74  64  71 W9        30.15S
ALTOONA        SUNNY     76  66  71 VRB3      30.11S
STATE COLLEGE  SUNNY     79  68  69 SW8       30.08F
WILLIAMSPORT   SUNNY     76  62  62 CALM      30.04F
SELINSGROVE    SUNNY     78  67  68 VRB5      30.05F
FT INDIANTOWN  MOSUNNY   76  67  74 SW5       30.07S
CAPITAL CITY   MOSUNNY   78  64  61 W6        30.06F
HARRISBURG     PTSUNNY   78  65  63 CALM      30.05F
YORK           CLOUDY    76  68  76 NW5       30.07S
$$

PAZ038>040-043-044-047-048-054-055-060>062-067>071-271600-
EASTERN PENNSYLVANIA

CITY           SKY/WX    TMP DP  RH WIND       PRES   REMARKS
SCRANTON       SUNNY     77  61  57 W7        30.06F
MOUNT POCONO   MOSUNNY   78  64  61 NW6       30.09F
ALLENTOWN      SUNNY     81  63  54 W7        30.05S
QUAKERTOWN*    SUNNY     81  64  57 MISG      30.06F
READING        SUNNY     82  66  58 W5        30.04F
LANCASTER      CLOUDY    79  65  62 W7        30.06F
COATESVILLE    SUNNY     79  66  65 CALM      30.08F
POTTSTOWN      SUNNY     80  65  59 VRB3      30.06F
BLUE BELL      SUNNY     82  64  54 SW5       30.05S
DOYLESTOWN     SUNNY     82  64  54 W5        30.04F
WILLOW GROVE   NOT AVBL
NORTH PHILA    SUNNY     84  61  45 W5        30.06F
PHILADELPHIA   MOSUNNY   80  65  59 SW7       30.05F
$$



USA.gov is the U.S. government's official web portal to all federal, state and local government web resources and services.